Time,TemperatureF,DewpointF,PressureIn,WindDirection,WindDirectionDegrees,WindSpeedMPH,WindSpeedGustMPH,Humidity,HourlyPrecipIn,Conditions,Clouds,dailyrainin,SoftwareType,DateUTC
2013-08-21 00:00:00,55.4,53.8,30.18,SSE,164,0.0,3.0,94,0.00,,,0.32,meteohub,2013-08-21 07:00:00,
2013-08-21 00:05:00,55.2,53.6,30.18,SSE,151,1.0,1.0,94,0.00,,,0.32,meteohub,2013-08-21 07:05:00,
2013-08-21 00:10:00,55.4,53.8,30.18,SSE,150,1.0,2.0,94,0.00,,,0.32,meteohub,2013-08-21 07:10:00,
2013-08-21 00:15:00,55.6,54.0,30.18,SSE,152,1.0,2.0,94,0.00,,,0.32,meteohub,2013-08-21 07:15:00,
2013-08-21 00:21:00,55.6,54.0,30.19,South,175,0.0,2.0,94,0.00,,,0.32,meteohub,2013-08-21 07:21:00,
2013-08-21 00:26:00,55.8,54.1,30.19,South,175,0.0,2.0,94,0.00,,,0.32,meteohub,2013-08-21 07:26:00,
2013-08-21 00:31:00,55.8,53.8,30.19,South,173,0.0,2.0,93,0.00,,,0.32,meteohub,2013-08-21 07:31:00,
2013-08-21 00:36:00,55.8,53.8,30.19,SSE,151,0.0,1.0,93,0.00,,,0.32,meteohub,2013-08-21 07:36:00,
2013-08-21 00:41:00,55.6,53.2,30.19,SSE,163,2.0,2.0,92,0.00,,,0.32,meteohub,2013-08-21 07:41:00,
2013-08-21 00:46:00,55.2,53.2,30.19,SSE,155,0.0,2.0,93,0.00,,,0.32,meteohub,2013-08-21 07:46:00,
2013-08-21 00:51:00,55.2,53.2,30.19,SSE,156,1.0,2.0,93,0.00,,,0.32,meteohub,2013-08-21 07:51:00,
2013-08-21 00:56:00,55.0,52.7,30.19,South,171,0.0,2.0,92,0.00,,,0.32,meteohub,2013-08-21 07:56:00,
2013-08-21 01:01:00,55.2,53.2,30.19,SSE,152,1.0,2.0,93,0.00,,,0.32,meteohub,2013-08-21 08:01:00,
2013-08-21 01:06:00,55.2,51.8,30.20,SE,133,1.0,2.0,88,0.00,,,0.32,meteohub,2013-08-21 08:06:00,
2013-08-21 01:11:00,56.3,51.3,30.19,East,87,0.0,2.0,83,0.00,,,0.32,meteohub,2013-08-21 08:11:00,
2013-08-21 01:16:00,57.0,52.0,30.20,SE,130,0.0,3.0,83,0.00,,,0.32,meteohub,2013-08-21 08:16:00,
2013-08-21 01:21:00,57.4,52.3,30.20,SE,128,2.0,8.0,83,0.00,,,0.32,meteohub,2013-08-21 08:21:00,
2013-08-21 01:26:00,57.0,52.9,30.20,West,260,3.0,8.0,86,0.00,,,0.32,meteohub,2013-08-21 08:26:00,
2013-08-21 01:31:00,56.7,51.8,30.19,ESE,108,2.0,8.0,84,0.00,,,0.32,meteohub,2013-08-21 08:31:00,
2013-08-21 01:36:00,57.4,51.6,30.19,South,183,6.0,7.0,81,0.00,,,0.32,meteohub,2013-08-21 08:36:00,
2013-08-21 01:41:00,56.7,51.6,30.20,NE,42,5.0,7.0,83,0.00,,,0.32,meteohub,2013-08-21 08:41:00,
2013-08-21 01:47:00,57.4,51.6,30.19,SSE,162,2.0,10.0,81,0.00,,,0.32,meteohub,2013-08-21 08:47:00,
2013-08-21 01:52:00,57.0,51.6,30.19,SSE,148,0.0,10.0,82,0.00,,,0.32,meteohub,2013-08-21 08:52:00,
2013-08-21 01:57:00,57.4,51.3,30.19,SSW,203,3.0,10.0,80,0.00,,,0.32,meteohub,2013-08-21 08:57:00,
2013-08-21 02:02:00,57.7,53.2,30.19,SSE,161,2.0,8.0,85,0.00,,,0.32,meteohub,2013-08-21 09:02:00,
2013-08-21 02:07:00,56.7,52.9,30.19,SSE,161,0.0,7.0,87,0.00,,,0.32,meteohub,2013-08-21 09:07:00,
2013-08-21 02:12:00,55.8,52.5,30.19,South,171,1.0,7.0,89,0.00,,,0.32,meteohub,2013-08-21 09:12:00,
2013-08-21 02:17:00,55.0,51.8,30.20,South,191,1.0,3.0,89,0.00,,,0.32,meteohub,2013-08-21 09:17:00,
2013-08-21 02:22:00,55.0,51.6,30.20,SSE,163,0.0,3.0,88,0.00,,,0.32,meteohub,2013-08-21 09:22:00,
2013-08-21 02:27:00,54.9,52.0,30.19,SSE,166,0.0,3.0,90,0.00,,,0.32,meteohub,2013-08-21 09:27:00,
2013-08-21 02:32:00,54.7,52.2,30.19,South,169,0.0,2.0,91,0.00,,,0.32,meteohub,2013-08-21 09:32:00,
2013-08-21 02:37:00,54.3,52.0,30.20,SSE,148,2.0,2.0,92,0.00,,,0.32,meteohub,2013-08-21 09:37:00,
2013-08-21 02:42:00,54.1,51.8,30.20,SSW,207,0.0,2.0,92,0.00,,,0.32,meteohub,2013-08-21 09:42:00,
2013-08-21 02:47:00,54.0,51.4,30.20,SSE,156,0.0,2.0,91,0.00,,,0.32,meteohub,2013-08-21 09:47:00,
2013-08-21 02:52:00,53.8,51.3,30.20,SSE,150,1.0,2.0,91,0.00,,,0.32,meteohub,2013-08-21 09:52:00,
2013-08-21 02:57:00,54.0,51.6,30.19,South,173,1.0,2.0,92,0.00,,,0.32,meteohub,2013-08-21 09:57:00,
2013-08-21 03:02:00,54.0,51.4,30.19,South,175,0.0,2.0,91,0.00,,,0.32,meteohub,2013-08-21 10:02:00,
2013-08-21 03:07:00,53.8,51.4,30.19,SSE,164,0.0,2.0,92,0.00,,,0.32,meteohub,2013-08-21 10:07:00,
2013-08-21 03:12:00,53.8,51.3,30.19,SSE,168,0.0,1.0,91,0.00,,,0.32,meteohub,2013-08-21 10:12:00,
2013-08-21 03:17:00,53.4,51.1,30.19,ESE,108,1.0,1.0,92,0.00,,,0.32,meteohub,2013-08-21 10:17:00,
2013-08-21 03:22:00,53.4,51.1,30.19,SSE,162,0.0,2.0,92,0.00,,,0.32,meteohub,2013-08-21 10:22:00,
2013-08-21 03:27:00,53.2,51.3,30.19,SSW,205,0.0,2.0,93,0.00,,,0.32,meteohub,2013-08-21 10:27:00,
2013-08-21 03:32:00,53.1,50.7,30.19,SE,132,0.0,2.0,92,0.00,,,0.32,meteohub,2013-08-21 10:32:00,
2013-08-21 03:37:00,52.9,50.9,30.19,SSE,161,0.0,1.0,93,0.00,,,0.32,meteohub,2013-08-21 10:37:00,
2013-08-21 03:42:00,52.7,50.7,30.19,SSW,196,1.0,1.0,93,0.00,,,0.32,meteohub,2013-08-21 10:42:00,
2013-08-21 03:47:00,52.7,50.4,30.19,SSE,163,2.0,2.0,92,0.00,,,0.32,meteohub,2013-08-21 10:47:00,
2013-08-21 03:52:00,52.5,50.2,30.19,SSE,164,0.0,4.0,92,0.00,,,0.32,meteohub,2013-08-21 10:52:00,
2013-08-21 03:57:00,52.5,50.5,30.19,South,171,0.0,4.0,93,0.00,,,0.32,meteohub,2013-08-21 10:57:00,
2013-08-21 04:02:00,52.5,50.5,30.19,SSE,166,1.0,4.0,93,0.00,,,0.32,meteohub,2013-08-21 11:02:00,
2013-08-21 04:07:00,52.3,50.4,30.19,South,183,0.0,1.0,93,0.00,,,0.32,meteohub,2013-08-21 11:07:00,
2013-08-21 04:12:00,52.3,50.7,30.19,South,190,0.0,1.0,94,0.00,,,0.32,meteohub,2013-08-21 11:12:00,
2013-08-21 04:17:00,52.3,50.4,30.19,SSE,163,0.0,1.0,93,0.00,,,0.32,meteohub,2013-08-21 11:17:00,
2013-08-21 04:22:00,52.2,50.2,30.19,South,176,0.0,2.0,93,0.00,,,0.32,meteohub,2013-08-21 11:22:00,
2013-08-21 04:27:00,52.0,50.0,30.19,SSE,148,1.0,2.0,93,0.00,,,0.32,meteohub,2013-08-21 11:27:00,
2013-08-21 04:32:00,51.6,49.6,30.19,SSE,149,1.0,2.0,93,0.00,,,0.32,meteohub,2013-08-21 11:32:00,
2013-08-21 04:37:00,51.4,49.5,30.19,SSE,152,1.0,2.0,93,0.00,,,0.32,meteohub,2013-08-21 11:37:00,
2013-08-21 04:42:00,51.4,49.5,30.19,SSE,157,1.0,2.0,93,0.00,,,0.32,meteohub,2013-08-21 11:42:00,
2013-08-21 04:47:00,51.4,49.5,30.19,SSE,159,0.0,2.0,93,0.00,,,0.32,meteohub,2013-08-21 11:47:00,
2013-08-21 04:52:00,51.3,49.6,30.19,SSE,159,0.0,2.0,94,0.00,,,0.32,meteohub,2013-08-21 11:52:00,
2013-08-21 04:57:00,51.3,49.3,30.19,South,175,0.0,2.0,93,0.00,,,0.32,meteohub,2013-08-21 11:57:00,
2013-08-21 05:02:00,51.3,49.6,30.19,SSW,195,1.0,2.0,94,0.00,,,0.32,meteohub,2013-08-21 12:02:00,
2013-08-21 05:07:00,51.1,49.5,30.19,SSE,153,1.0,2.0,94,0.00,,,0.32,meteohub,2013-08-21 12:07:00,
2013-08-21 05:12:00,51.1,48.9,30.19,South,173,0.0,4.0,92,0.00,,,0.32,meteohub,2013-08-21 12:12:00,
2013-08-21 05:17:00,51.3,49.3,30.19,SSE,167,0.0,4.0,93,0.00,,,0.32,meteohub,2013-08-21 12:17:00,
2013-08-21 05:22:00,51.3,49.3,30.18,SSE,154,0.0,2.0,93,0.00,,,0.32,meteohub,2013-08-21 12:22:00,
2013-08-21 05:27:00,51.1,49.1,30.18,SSE,165,0.0,1.0,93,0.00,,,0.32,meteohub,2013-08-21 12:27:00,
2013-08-21 05:32:00,50.7,48.7,30.18,SSE,153,1.0,3.0,93,0.00,,,0.32,meteohub,2013-08-21 12:32:00,
2013-08-21 05:37:00,50.5,48.6,30.19,SE,144,1.0,3.0,93,0.00,,,0.32,meteohub,2013-08-21 12:37:00,
2013-08-21 05:42:00,50.5,48.6,30.19,SE,140,1.0,3.0,93,0.00,,,0.32,meteohub,2013-08-21 12:42:00,
2013-08-21 05:47:00,50.7,48.6,30.19,South,169,1.0,3.0,92,0.00,,,0.32,meteohub,2013-08-21 12:47:00,
2013-08-21 05:52:00,50.7,48.6,30.19,SSE,153,2.0,3.0,92,0.00,,,0.32,meteohub,2013-08-21 12:52:00,
2013-08-21 05:57:00,50.7,48.2,30.19,SSE,153,2.0,3.0,91,0.00,,,0.32,meteohub,2013-08-21 12:57:00,
2013-08-21 06:02:00,50.7,47.8,30.19,SSE,148,2.0,3.0,90,0.00,,,0.32,meteohub,2013-08-21 13:02:00,
2013-08-21 06:07:00,50.7,48.2,30.19,SSE,152,2.0,3.0,91,0.00,,,0.32,meteohub,2013-08-21 13:07:00,
2013-08-21 06:12:00,50.5,48.0,30.19,SSE,155,2.0,3.0,91,0.00,,,0.32,meteohub,2013-08-21 13:12:00,
2013-08-21 06:17:00,50.4,47.8,30.19,SSE,150,2.0,3.0,91,0.00,,,0.32,meteohub,2013-08-21 13:17:00,
2013-08-21 06:22:00,50.2,48.0,30.19,SSE,168,1.0,3.0,92,0.00,,,0.32,meteohub,2013-08-21 13:22:00,
2013-08-21 06:27:00,50.0,48.0,30.20,SSE,159,1.0,3.0,93,0.00,,,0.32,meteohub,2013-08-21 13:27:00,
2013-08-21 06:32:00,50.0,48.0,30.20,SSE,167,0.0,3.0,93,0.00,,,0.32,meteohub,2013-08-21 13:32:00,
2013-08-21 06:37:00,50.0,48.0,30.20,SSE,150,2.0,3.0,93,0.00,,,0.32,meteohub,2013-08-21 13:37:00,
2013-08-21 06:42:00,49.8,47.8,30.20,SSE,147,1.0,3.0,93,0.00,,,0.32,meteohub,2013-08-21 13:42:00,
2013-08-21 06:47:00,49.8,47.8,30.20,SE,128,2.0,3.0,93,0.00,,,0.32,meteohub,2013-08-21 13:47:00,
2013-08-21 06:52:00,49.8,47.8,30.20,SE,146,0.0,3.0,93,0.00,,,0.32,meteohub,2013-08-21 13:52:00,
2013-08-21 06:57:00,49.8,47.8,30.20,SSE,149,2.0,3.0,93,0.00,,,0.32,meteohub,2013-08-21 13:57:00,
2013-08-21 07:02:00,49.8,47.8,30.20,SE,142,0.0,3.0,93,0.00,,,0.32,meteohub,2013-08-21 14:02:00,
2013-08-21 07:07:00,49.8,47.7,30.20,SSE,150,2.0,3.0,92,0.00,,,0.32,meteohub,2013-08-21 14:07:00,
2013-08-21 07:12:00,49.8,47.8,30.20,SSE,149,1.0,3.0,93,0.00,,,0.32,meteohub,2013-08-21 14:12:00,
2013-08-21 07:17:00,50.0,48.0,30.20,SSE,157,1.0,3.0,93,0.00,,,0.32,meteohub,2013-08-21 14:17:00,
2013-08-21 07:22:00,50.4,48.2,30.21,SSE,150,1.0,3.0,92,0.00,,,0.32,meteohub,2013-08-21 14:22:00,
2013-08-21 07:27:00,50.9,48.4,30.21,SE,146,0.0,3.0,91,0.00,,,0.32,meteohub,2013-08-21 14:27:00,
2013-08-21 07:32:00,51.4,49.3,30.21,SE,134,1.0,3.0,92,0.00,,,0.32,meteohub,2013-08-21 14:32:00,
2013-08-21 07:37:00,52.2,49.6,30.21,SSE,147,1.0,3.0,91,0.00,,,0.32,meteohub,2013-08-21 14:37:00,
2013-08-21 07:42:00,53.1,49.8,30.21,SSE,150,1.0,3.0,89,0.00,,,0.32,meteohub,2013-08-21 14:42:00,
2013-08-21 07:47:00,53.8,50.4,30.21,SSE,148,1.0,3.0,88,0.00,,,0.32,meteohub,2013-08-21 14:47:00,
2013-08-21 07:52:00,54.9,50.7,30.21,SSE,147,1.0,3.0,86,0.00,,,0.32,meteohub,2013-08-21 14:52:00,
2013-08-21 07:57:00,55.9,50.9,30.21,SSE,147,0.0,2.0,83,0.00,,,0.32,meteohub,2013-08-21 14:57:00,
2013-08-21 08:02:00,56.8,51.8,30.21,SSE,148,1.0,2.0,83,0.00,,,0.32,meteohub,2013-08-21 15:02:00,
2013-08-21 08:07:00,57.9,52.5,30.21,SE,146,1.0,2.0,82,0.00,,,0.32,meteohub,2013-08-21 15:07:00,
2013-08-21 08:12:00,58.6,52.9,30.21,SE,142,1.0,2.0,81,0.00,,,0.32,meteohub,2013-08-21 15:12:00,
2013-08-21 08:17:00,59.4,53.2,30.21,SE,146,1.0,2.0,80,0.00,,,0.32,meteohub,2013-08-21 15:17:00,
2013-08-21 08:22:00,59.5,53.8,30.21,SE,144,0.0,2.0,81,0.00,,,0.32,meteohub,2013-08-21 15:22:00,
2013-08-21 08:27:00,60.4,54.0,30.21,SE,144,0.0,2.0,79,0.00,,,0.32,meteohub,2013-08-21 15:27:00,
2013-08-21 08:32:00,61.9,54.9,30.21,SE,144,0.0,1.0,78,0.00,,,0.32,meteohub,2013-08-21 15:32:00,
2013-08-21 08:37:00,63.7,55.2,30.21,SE,144,0.0,1.0,74,0.00,,,0.32,meteohub,2013-08-21 15:37:00,
2013-08-21 08:42:00,64.9,55.4,30.21,SE,144,0.0,0.0,71,0.00,,,0.32,meteohub,2013-08-21 15:42:00,
2013-08-21 08:47:00,65.5,57.0,30.20,SE,144,0.0,0.0,74,0.00,,,0.32,meteohub,2013-08-21 15:47:00,
2013-08-21 08:52:00,65.7,56.8,30.20,SE,144,0.0,0.0,73,0.00,,,0.32,meteohub,2013-08-21 15:52:00,
2013-08-21 08:57:00,64.6,55.4,30.20,NW,315,2.0,2.0,72,0.00,,,0.32,meteohub,2013-08-21 15:57:00,
2013-08-21 09:02:00,63.3,54.5,30.20,NW,322,3.0,3.0,73,0.00,,,0.32,meteohub,2013-08-21 16:02:00,
2013-08-21 09:07:00,63.0,55.2,30.20,NNW,337,2.0,3.0,76,0.00,,,0.32,meteohub,2013-08-21 16:07:00,
2013-08-21 09:12:00,63.1,54.3,30.20,NNW,333,2.0,3.0,73,0.00,,,0.32,meteohub,2013-08-21 16:12:00,
2013-08-21 09:17:00,63.3,54.1,30.20,NW,318,2.0,3.0,72,0.00,,,0.32,meteohub,2013-08-21 16:17:00,
2013-08-21 09:22:00,63.7,53.2,30.20,NW,318,3.0,3.0,69,0.00,,,0.32,meteohub,2013-08-21 16:22:00,
2013-08-21 09:27:00,63.9,53.4,30.20,NW,320,2.0,4.0,69,0.00,,,0.32,meteohub,2013-08-21 16:27:00,
2013-08-21 09:32:00,64.0,54.1,30.20,NW,322,4.0,4.0,70,0.00,,,0.32,meteohub,2013-08-21 16:32:00,
2013-08-21 09:37:00,64.0,54.1,30.20,NW,319,3.0,4.0,70,0.00,,,0.32,meteohub,2013-08-21 16:37:00,
2013-08-21 09:42:00,64.2,55.8,30.20,NW,322,3.0,5.0,74,0.00,,,0.32,meteohub,2013-08-21 16:42:00,
2013-08-21 09:47:00,64.2,54.7,30.20,NW,323,3.0,5.0,71,0.00,,,0.32,meteohub,2013-08-21 16:47:00,
2013-08-21 09:52:00,64.8,56.3,30.20,NW,323,3.0,5.0,74,0.00,,,0.32,meteohub,2013-08-21 16:52:00,
2013-08-21 09:57:00,64.8,55.6,30.20,NW,321,4.0,4.0,72,0.00,,,0.32,meteohub,2013-08-21 16:57:00,
2013-08-21 10:02:00,64.6,55.4,30.20,NW,322,3.0,5.0,72,0.00,,,0.32,meteohub,2013-08-21 17:02:00,
2013-08-21 10:07:00,64.6,55.0,30.20,NW,320,4.0,5.0,71,0.00,,,0.32,meteohub,2013-08-21 17:07:00,
2013-08-21 10:12:00,64.2,54.3,30.20,NW,323,4.0,5.0,70,0.00,,,0.32,meteohub,2013-08-21 17:12:00,
2013-08-21 10:17:00,64.2,54.7,30.20,NNW,335,2.0,5.0,71,0.00,,,0.32,meteohub,2013-08-21 17:17:00,
2013-08-21 10:22:00,64.2,53.8,30.20,NNW,340,4.0,5.0,69,0.00,,,0.32,meteohub,2013-08-21 17:22:00,
2013-08-21 10:27:00,64.6,55.0,30.20,NNE,17,5.0,5.0,71,0.00,,,0.32,meteohub,2013-08-21 17:27:00,
2013-08-21 10:32:00,64.6,52.9,30.19,North,350,5.0,5.0,66,0.00,,,0.32,meteohub,2013-08-21 17:32:00,
2013-08-21 10:37:00,64.8,52.3,30.19,NW,325,3.0,5.0,64,0.00,,,0.32,meteohub,2013-08-21 17:37:00,
2013-08-21 10:42:00,64.9,52.0,30.19,NNW,333,4.0,5.0,63,0.00,,,0.32,meteohub,2013-08-21 17:42:00,
2013-08-21 10:47:00,65.1,52.2,30.19,NW,316,4.0,5.0,63,0.00,,,0.32,meteohub,2013-08-21 17:47:00,
2013-08-21 10:52:00,65.3,53.2,30.19,NW,316,5.0,6.0,65,0.00,,,0.32,meteohub,2013-08-21 17:52:00,
2013-08-21 10:57:00,65.3,52.0,30.19,NW,319,4.0,6.0,62,0.00,,,0.32,meteohub,2013-08-21 17:57:00,
2013-08-21 11:02:00,65.5,50.4,30.19,NNW,327,4.0,6.0,58,0.00,,,0.32,meteohub,2013-08-21 18:02:00,
2013-08-21 11:07:00,65.5,52.2,30.19,NNW,329,4.0,6.0,62,0.00,,,0.32,meteohub,2013-08-21 18:07:00,
2013-08-21 11:12:00,65.8,51.6,30.19,NW,321,3.0,5.0,60,0.00,,,0.32,meteohub,2013-08-21 18:12:00,
2013-08-21 11:17:00,66.0,52.2,30.19,NNW,340,3.0,5.0,61,0.00,,,0.32,meteohub,2013-08-21 18:17:00,
2013-08-21 11:22:00,66.2,52.9,30.19,NNW,333,4.0,5.0,62,0.00,,,0.32,meteohub,2013-08-21 18:22:00,
2013-08-21 11:27:00,66.0,54.7,30.19,NNW,342,4.0,5.0,67,0.00,,,0.32,meteohub,2013-08-21 18:27:00,
2013-08-21 11:32:00,65.8,54.5,30.19,NNW,331,4.0,5.0,67,0.00,,,0.32,meteohub,2013-08-21 18:32:00,
2013-08-21 11:37:00,65.8,54.1,30.19,NW,322,2.0,5.0,66,0.00,,,0.32,meteohub,2013-08-21 18:37:00,
2013-08-21 11:42:00,65.8,52.9,30.19,NW,320,2.0,5.0,63,0.00,,,0.32,meteohub,2013-08-21 18:42:00,
2013-08-21 11:47:00,66.0,53.4,30.18,NE,36,3.0,5.0,64,0.00,,,0.32,meteohub,2013-08-21 18:47:00,
2013-08-21 11:52:00,66.4,53.4,30.18,NNW,336,1.0,4.0,63,0.00,,,0.32,meteohub,2013-08-21 18:52:00,
2013-08-21 11:57:00,66.4,53.8,30.18,NNW,331,2.0,4.0,64,0.00,,,0.32,meteohub,2013-08-21 18:57:00,
2013-08-21 12:02:00,66.2,54.5,30.18,NW,319,2.0,4.0,66,0.00,,,0.32,meteohub,2013-08-21 19:02:00,
2013-08-21 12:07:00,66.0,54.7,30.17,NNW,335,3.0,3.0,67,0.00,,,0.32,meteohub,2013-08-21 19:07:00,
2013-08-21 12:12:00,65.8,55.8,30.17,NNE,23,2.0,4.0,70,0.00,,,0.32,meteohub,2013-08-21 19:12:00,
2013-08-21 12:17:00,65.8,55.0,30.18,NE,40,3.0,4.0,68,0.00,,,0.32,meteohub,2013-08-21 19:17:00,
2013-08-21 12:22:00,65.8,55.8,30.18,NE,46,0.0,4.0,70,0.00,,,0.32,meteohub,2013-08-21 19:22:00,
2013-08-21 12:27:00,65.5,58.5,30.20,SSE,163,0.0,4.0,78,0.01,,,0.33,meteohub,2013-08-21 19:27:00,
2013-08-21 12:32:00,64.8,58.8,30.20,SSE,165,0.0,4.0,81,0.02,,,0.34,meteohub,2013-08-21 19:32:00,
2013-08-21 12:37:00,63.3,57.7,30.19,SSW,198,0.0,3.0,82,0.08,,,0.40,meteohub,2013-08-21 19:37:00,
2013-08-21 12:42:00,62.1,58.1,30.19,SSW,198,0.0,3.0,87,0.08,,,0.40,meteohub,2013-08-21 19:42:00,
2013-08-21 12:47:00,61.3,57.2,30.19,NW,314,1.0,3.0,86,0.08,,,0.40,meteohub,2013-08-21 19:47:00,
2013-08-21 14:32:00,64.8,55.9,30.17,SSW,209,1.0,3.0,73,0.08,,,0.40,meteohub,2013-08-21 21:32:00,
2013-08-21 14:37:00,63.1,57.9,30.19,South,190,0.0,3.0,83,0.04,,,0.40,meteohub,2013-08-21 21:37:00,
2013-08-21 14:42:00,62.1,57.7,30.19,South,188,1.0,3.0,86,0.04,,,0.46,meteohub,2013-08-21 21:42:00,
2013-08-21 14:48:00,61.3,57.4,30.18,SSE,163,0.0,3.0,87,0.04,,,0.46,meteohub,2013-08-21 21:48:00,
2013-08-21 15:20:00,63.1,56.8,30.17,NNW,337,2.0,3.0,80,0.04,,,0.46,meteohub,2013-08-21 22:20:00,
2013-08-21 15:26:00,63.7,57.0,30.17,NW,325,0.0,3.0,79,0.04,,,0.47,meteohub,2013-08-21 22:26:00,
2013-08-21 15:31:00,64.2,55.8,30.17,NW,324,0.0,2.0,74,0.02,,,0.47,meteohub,2013-08-21 22:31:00,
2013-08-21 15:36:00,64.2,56.5,30.17,NW,319,0.0,2.0,76,0.02,,,0.47,meteohub,2013-08-21 22:36:00,
2013-08-21 15:41:00,64.0,55.6,30.17,NW,323,5.0,5.0,74,0.01,,,0.47,meteohub,2013-08-21 22:41:00,
2013-08-21 15:46:00,64.2,56.8,30.17,NNW,331,0.0,6.0,77,0.01,,,0.47,meteohub,2013-08-21 22:46:00,
2013-08-21 15:51:00,65.1,56.7,30.17,North,355,0.0,6.0,74,0.01,,,0.47,meteohub,2013-08-21 22:51:00,
2013-08-21 15:56:00,65.7,57.6,30.17,NNW,337,0.0,6.0,75,0.00,,,0.47,meteohub,2013-08-21 22:56:00,
2013-08-21 16:01:00,66.6,56.1,30.17,NNE,28,2.0,6.0,69,0.00,,,0.47,meteohub,2013-08-21 23:01:00,
2013-08-21 16:06:00,65.5,55.4,30.17,NNE,19,3.0,3.0,70,0.00,,,0.47,meteohub,2013-08-21 23:06:00,
2013-08-21 16:11:00,64.9,54.9,30.17,NE,38,2.0,3.0,70,0.00,,,0.47,meteohub,2013-08-21 23:11:00,
2013-08-21 16:16:00,64.8,54.7,30.17,NE,40,1.0,3.0,70,0.00,,,0.47,meteohub,2013-08-21 23:16:00,
2013-08-21 16:21:00,64.6,55.0,30.17,NE,40,0.0,3.0,71,0.00,,,0.47,meteohub,2013-08-21 23:21:00,
2013-08-21 16:27:00,64.6,55.4,30.17,NE,40,0.0,2.0,72,0.00,,,0.47,meteohub,2013-08-21 23:27:00,
2013-08-21 16:32:00,64.8,55.6,30.17,East,94,0.0,2.0,72,0.00,,,0.47,meteohub,2013-08-21 23:32:00,
2013-08-21 16:37:00,64.9,53.8,30.17,South,176,0.0,1.0,67,0.00,,,0.47,meteohub,2013-08-21 23:37:00,
2013-08-21 16:42:00,65.1,54.7,30.17,SSE,148,0.0,2.0,69,0.00,,,0.47,meteohub,2013-08-21 23:42:00,
2013-08-21 16:47:00,65.5,55.8,30.17,ESE,106,1.0,2.0,71,0.00,,,0.47,meteohub,2013-08-21 23:47:00,
2013-08-21 16:52:00,65.5,55.4,30.18,ESE,112,0.0,2.0,70,0.00,,,0.47,meteohub,2013-08-21 23:52:00,
2013-08-21 16:57:00,65.5,56.3,30.18,ESE,112,0.0,1.0,72,0.00,,,0.47,meteohub,2013-08-21 23:57:00,
2013-08-21 17:02:00,65.5,53.8,30.17,ESE,112,0.0,2.0,66,0.00,,,0.47,meteohub,2013-08-22 00:02:00,
2013-08-21 17:07:00,65.7,54.9,30.17,SE,137,0.0,2.0,68,0.00,,,0.00,meteohub,2013-08-22 00:07:00,
2013-08-21 17:12:00,65.7,54.3,30.17,SE,138,0.0,2.0,67,0.00,,,0.00,meteohub,2013-08-22 00:12:00,
2013-08-21 17:17:00,65.8,54.5,30.17,East,95,0.0,2.0,67,0.00,,,0.00,meteohub,2013-08-22 00:17:00,
2013-08-21 17:22:00,66.0,55.6,30.17,East,97,0.0,2.0,69,0.00,,,0.00,meteohub,2013-08-22 00:22:00,
2013-08-21 17:27:00,66.0,53.4,30.17,East,96,0.0,2.0,64,0.00,,,0.00,meteohub,2013-08-22 00:27:00,
2013-08-21 17:32:00,66.4,55.9,30.16,East,97,0.0,1.0,69,0.00,,,0.00,meteohub,2013-08-22 00:32:00,
2013-08-21 17:37:00,66.2,56.8,30.17,South,169,1.0,0.0,72,0.00,,,0.00,meteohub,2013-08-22 00:37:00,
2013-08-21 17:42:00,65.5,55.8,30.17,SSW,207,0.0,1.0,71,0.00,,,0.00,meteohub,2013-08-22 00:42:00,
2013-08-21 17:47:00,65.1,56.3,30.17,SSW,207,0.0,1.0,73,0.00,,,0.00,meteohub,2013-08-22 00:47:00,
2013-08-21 17:52:00,64.9,56.1,30.17,SSW,207,0.0,1.0,73,0.00,,,0.00,meteohub,2013-08-22 00:52:00,
2013-08-21 17:57:00,64.9,57.2,30.17,SSW,207,0.0,1.0,76,0.00,,,0.00,meteohub,2013-08-22 00:57:00,
2013-08-21 18:02:00,64.8,57.4,30.17,SSW,207,0.0,0.0,77,0.00,,,0.00,meteohub,2013-08-22 01:02:00,
2013-08-21 18:07:00,64.8,58.8,30.17,SSW,207,0.0,0.0,81,0.00,,,0.00,meteohub,2013-08-22 01:07:00,
2013-08-21 18:12:00,64.6,58.6,30.18,SSW,207,0.0,0.0,81,0.00,,,0.00,meteohub,2013-08-22 01:12:00,
2013-08-21 18:17:00,64.6,58.3,30.17,WSW,242,0.0,1.0,80,0.00,,,0.00,meteohub,2013-08-22 01:17:00,
2013-08-21 18:22:00,64.4,58.5,30.17,WSW,242,0.0,1.0,81,0.00,,,0.00,meteohub,2013-08-22 01:22:00,
2013-08-21 18:27:00,64.2,57.9,30.17,NW,324,0.0,1.0,80,0.00,,,0.00,meteohub,2013-08-22 01:27:00,
2013-08-21 18:32:00,64.0,57.4,30.17,NNE,27,0.0,2.0,79,0.00,,,0.00,meteohub,2013-08-22 01:32:00,
2013-08-21 18:37:00,64.0,58.1,30.17,NNE,27,0.0,2.0,81,0.00,,,0.00,meteohub,2013-08-22 01:37:00,
2013-08-21 18:42:00,64.0,58.1,30.17,NNE,27,1.0,2.0,81,0.00,,,0.00,meteohub,2013-08-22 01:42:00,